Location: *
(50.3194°N, 7.1067°E)
Time: 08:33:02
(UTC+00:00)

ERS-1 Rocket - Pass Details

Date: 22 September 2019
Orbit: 754 x 757 km, 98.5° (Epoch: 18 October)

Event Time Altitude Azimuth Distance (km) Brightness Sun altitude
Exits shadow 21:00:52 51° 335° (NNW) 953 3.7 -31.0°
Drops below altitude 10° 21:04:38 10° 344° (NNW) 2,295 6.2 -31.4°
Sets 21:06:57 0° 345° (NNW) 3,225 7.1 -31.7°
